Weather History for Kansas City International, MO

Change the Weather History Date:

Tuesday, February 19, 2013

  Actual Average Record
Temperature  
Mean Temperature 25 °F 35 °F  
Max Temperature 33 °F 45 °F 74 °F (1930)
Min Temperature 16 °F 25 °F -3 °F (1936)
Degree Days  
Heating Degree Days 40 30  
Month to date heating degree days 554 627  
Since 1 July heating degree days 3381 3791  
Cooling Degree Days 0 0  
Month to date cooling degree days 0 0  
Year to date cooling degree days 0 0  
Moisture  
Dew Point 6 °F    
Average Humidity 50    
Maximum Humidity 74    
Minimum Humidity 26    
Precipitation  
Precipitation 0.00 in 0.05 in 1.41 in (1891)
Month to date precipitation 0.41 0.95  
Year to date precipitation 1.44 2.02  
Snow  
Snow 0.00 in 0.20 in 3.00 in (1911)
Month to date snowfall 0.2 4.0  
Since 1 July snowfall 4.9 14.8  
Snow Depth 0.00 in    
Sea Level Pressure  
Sea Level Pressure 30.27 in    
Wind  
Wind Speed 11 mph (NW)    
Max Wind Speed 24 mph    
Max Gust Speed 32 mph    
Visibility 10 miles    
Events      
T = Trace of Precipitation, MM = Missing Value Source: NWS Daily Summary

Daily Weather History Graph

Daily Weather History Graph

Search for Another Location

Airport:

Trip Planner

Search our weather history database for the weather conditions in past years. The results will help you decide how hot, cold, wet, or windy it might be!

Date:

Astronomy

Feb. 19, 2013 Rise Set
Actual Time 7:05 AM CST 6:00 PM CST
Civil Twilight 6:38 AM CST 6:28 PM CST
Nautical Twilight 6:06 AM CST 6:59 PM CST
Astronomical Twilight 5:35 AM CST 7:30 PM CST
Moon 12:34 PM CST (2/19) 2:36 AM CST (2/19)
Length of Visible Light 11h 50m
Length of Day
10h 55m
Waxing Gibbous, 67% of the Moon is Illuminated
Feb 19
Waxing Gibbous
Feb 25
Full
Mar 4
Last Quarter
Mar 11
New
Mar 19
First Quarter

Hourly Weather History & Observations

Time (CST) Temp. Windchill Dew Point Humidity Pressure Visibility Wind Dir Wind Speed Gust Speed Precip Events Conditions
12:53 AM 24.1 °F 17.0 °F 14.0 °F 65% 30.10 in 10.0 mi WNW 5.8 mph - N/A   Clear
1:53 AM 24.1 °F 15.2 °F 15.1 °F 69% 30.12 in 10.0 mi WNW 8.1 mph - N/A   Clear
2:53 AM 24.1 °F 16.0 °F 15.1 °F 69% 30.12 in 10.0 mi WNW 6.9 mph - N/A   Clear
3:53 AM 23.0 °F 13.9 °F 15.1 °F 72% 30.14 in 10.0 mi NW 8.1 mph - N/A   Clear
4:53 AM 23.0 °F 11.1 °F 14.0 °F 68% 30.16 in 10.0 mi NW 12.7 mph 19.6 mph N/A   Clear
5:53 AM 21.9 °F 11.0 °F 12.9 °F 68% 30.19 in 10.0 mi WNW 10.4 mph 20.7 mph N/A   Clear
6:53 AM 19.9 °F 7.3 °F 8.1 °F 60% 30.23 in 10.0 mi NW 12.7 mph 24.2 mph N/A   Partly Cloudy
7:53 AM 19.0 °F 4.0 °F 7.0 °F 59% 30.25 in 10.0 mi NW 17.3 mph 25.3 mph N/A   Partly Cloudy
8:53 AM 19.9 °F 3.9 °F 6.1 °F 55% 30.27 in 10.0 mi NNW 20.7 mph 29.9 mph N/A   Partly Cloudy
9:53 AM 21.9 °F 6.9 °F 6.1 °F 51% 30.30 in 8.0 mi NW 19.6 mph 32.2 mph N/A   Clear
10:53 AM 24.1 °F 11.0 °F 3.9 °F 42% 30.33 in 10.0 mi WNW 16.1 mph - N/A   Clear
12:53 PM 28.9 °F 17.3 °F 3.0 °F 33% 30.32 in 10.0 mi WNW 16.1 mph 23.0 mph N/A   Clear
1:53 PM 30.9 °F 18.7 °F 1.0 °F 28% 30.31 in 10.0 mi WNW 19.6 mph 23.0 mph N/A   Clear
2:53 PM 32.0 °F 20.8 °F 1.0 °F 27% 30.32 in 10.0 mi NW 17.3 mph - N/A   Partly Cloudy
3:53 PM 32.0 °F 24.8 °F 1.0 °F 27% 30.31 in 10.0 mi NW 8.1 mph - N/A   Partly Cloudy
4:53 PM 30.0 °F 21.1 °F -0.9 °F 27% 30.31 in 10.0 mi NW 10.4 mph - N/A   Partly Cloudy
6:53 PM 21.9 °F 17.2 °F 1.0 °F 40% 30.32 in 10.0 mi NNW 3.5 mph - N/A   Partly Cloudy
7:53 PM 23.0 °F 17.0 °F 1.0 °F 39% 30.34 in 10.0 mi NW 4.6 mph - N/A   Clear
8:53 PM 21.9 °F 15.7 °F 1.0 °F 40% 30.35 in 10.0 mi NW 4.6 mph - N/A   Clear
9:53 PM 18.0 °F 8.7 °F 1.9 °F 50% 30.35 in 10.0 mi North 6.9 mph - N/A   Clear
10:53 PM 18.0 °F 9.8 °F 1.9 °F 50% 30.37 in 10.0 mi North 5.8 mph - N/A   Clear
11:53 PM 16.0 °F 6.3 °F 1.9 °F 54% 30.38 in 10.0 mi North 6.9 mph - N/A   Clear